Location: Boiro
(42.6475°N, 8.8834°W)
Time: 00:15:07
(UTC+01:00)

Tiros 1 - Pass Details

Date: 06 December 2021
Orbit: 629 x 664 km, 48.4° (Epoch: 26 January)

Event Time Altitude Azimuth Distance (km) Brightness Sun altitude
Rises 18:52:53 0° 226° (SW) 2,904 12.0 -9.2°
Reaches altitude 10° 18:55:13 10° 222° (SW) 2,002 10.8 -9.6°
Maximum altitude 18:59:42 53° 146° (SE) 776 7.5 -10.4°
Enters shadow 19:03:23 15° 72° (ENE) 1,705 8.6 -11.0°
